Flag for United Kingdom Weather past 2 weeks in Chester, England, United Kingdom

Now
56 °F

Cool.


Feels Like: 53 °F
Forecast: 57 / 67 °F
Wind: 13 mph from Southwest

Location: Hawarden

Current Time: Jul 6, 2015 at 1:16:30 AM

Latest Report: Jul 6, 2015 at 12:00 AM


Visibility: 25 mi

Pressure: 30.00 "Hg

Humidity: 76%

Dew point: 49 °F

Location of ChesterLocation

Historic Weather in Chester — Graph

°F

Chester temperature yesterday

Maximum temperature yesterday: 68 °F (at 1:00 PM)
Minimum temperature yesterday: 47 °F (at 5:00 AM)
Average temperature yesterday: 57 °F

Past Weeks' High & Low Weather Summary

 TemperatureHumidityPressure
High83 °F (Jun 30, 7:00 PM)98% (Jul 3, 6:00 AM)30.30 "Hg (Jul 3, 6:00 AM)
Low47 °F (Jun 24, 1:00 AM)38% (Jul 4, 5:00 PM)29.80 "Hg (Jul 1, 4:00 PM)
Average62 °F72%30.03 "Hg
* Reported Midnight between Jun 20 and Jun 21 — Midnight between Jul 5 and Jul 6, Chester, Weather by CustomWeather, © 2015

Note: Actual official high and low records may vary slightly from our data, if they occured in-between our weather recording intervals... More about our weather records

Advertising

Chester weather history for previous 24 hours

 ConditionsComfort  
Time TempWeatherWind HumidityBarometerVisibility
12:00 AM
Mon, Jul 6
56 °FCool.13 mph76%30.00 "Hg25 mi
11:00 PM
Sun, Jul 5
56 °FCool.10 mph75%30.00 "Hg25 mi
10:00 PM57 °FCool.10 mph74%29.99 "Hg25 mi
9:00 PM60 °FCool.9 mph64%29.97 "Hg28 mi
8:00 PM62 °FMild.9 mph60%29.96 "Hg28 mi
7:00 PM63 °FMild.12 mph60%29.95 "Hg28 mi
6:00 PM62 °FCool.7 mph71%29.95 "Hg31 mi
5:00 PM59 °FCool.3 mph89%29.96 "Hg19 mi
4:00 PM57 °FRain showers. Cloudy.1 mph91%29.97 "Hg14 mi
3:00 PM56 °FRain. Cloudy.3 mph90%29.98 "Hg6 mi
2:00 PM68 °FMild.8 mph55%29.95 "Hg22 mi
1:00 PM68 °FMild.13 mph54%29.96 "Hg28 mi
11:00 AM63 °FMild.10 mph65%30.01 "Hg19 mi
10:00 AM62 °FCool.10 mph69%30.03 "Hg12 mi
9:00 AM59 °FCool.9 mph74%30.04 "Hg17 mi
8:00 AM57 °FCool.6 mph81%30.06 "Hg22 mi
7:00 AM54 °FCool.8 mph88%30.06 "Hg16 mi
6:00 AM50 °FCool.3 mph92%30.06 "Hg14 mi
5:00 AM47 °FCool.5 mph91%30.07 "Hg14 mi
4:00 AM51 °FCool.6 mph91%30.08 "Hg15 mi
3:00 AM51 °FCool.7 mph88%30.09 "Hg14 mi
2:00 AM53 °FCool.7 mph86%30.10 "Hg16 mi
1:00 AM53 °FCool.7 mph83%30.11 "Hg19 mi
Weather by CustomWeather, © 2015

See weather overviewHow to use our weather pages